Vorticity
1 1 1 1 1 1 2 2 2 3 3 3 3 3 3 3 3 3 3 2 2 2 2 2 2 2 2 2 3 4 4 3 3 2 2 2 2 1 1 1 1 2 2 1 2 3 3 4 5 5 4 4 4 4 4 4 3 3 3 3 4 4 4 4 5 5 6 7 7 8 9 10 9 6 5 5 4 5 4 4 5 4 5 5 6 7 5 6
1 2 1 1 1 1 1 1 1 1 1 1 1 1 1 1 1 1 1 1 1 1 1 1 1 1 1 1 1 2 2 3 3 3 2 2 2 2 1 1 1 1 1 1 1 1 1 2 3 3 4 4 4 4 4 4 4 4 4 3 3 3 4 5 4 4 4 4 5 7 8 8 10 10 7 7 6 5 6 5 4 4 5 4 4 6 4 4
2 2 2 2 2 2 2 1 1 1 1 1 1 1 1 0 0 0 1 1 1 1 1 1 1 1 1 1 1 1 2 2 2 2 1 2 2 2 2 1 2 1 1 2 1 1 1 1 1 1 2 2 3 3 3 3 4 5 4 4 3 3 3 4 4 4 4 4 3 4 5 6 7 9 8 8 8 7 8 7 6 6 7 7 5 7 7 6
3 3 3 3 3 3 2 2 2 1 1 1 1 1 1 1 0 0 1 1 1 1 1 2 2 2 2 2 2 1 2 1 2 2 1 2 2 3 3 2 2 2 3 3 1 1 1 2 1 1 0 1 1 2 2 2 2 2 3 4 3 4 4 4 3 4 4 4 4 3 4 4 4 6 6 6 6 6 9 7 7 7 8 10 7 7 8 7
4 4 4 3 3 4 3 3 3 3 2 2 2 1 1 1 1 1 1 1 1 1 1 1 2 2 2 2 2 3 2 1 2 3 2 3 3 3 3 3 3 3 2 2 2 1 1 2 2 1 1 1 0 0 1 2 2 1 2 3 3 3 3 3 3 3 4 4 5 4 5 4 4 5 4 5 4 5 8 5 5 6 7 9 6 4 5 5
6 6 5 5 5 5 4 4 4 4 4 3 3 3 3 2 2 2 2 2 2 2 2 2 2 2 2 2 2 3 3 3 3 2 3 3 3 3 3 3 2 2 2 2 2 2 2 3 3 3 2 2 1 -0 -0 1 2 2 1 2 2 2 3 3 2 2 3 3 4 4 5 5 5 6 5 5 4 3 4 3 3 5 6 7 5 3 4 3
9 8 8 8 7 7 7 6 6 6 5 5 5 4 4 4 3 3 3 3 3 3 3 3 3 3 3 3 3 3 4 5 4 2 3 4 3 3 3 3 3 3 3 2 2 2 2 2 3 3 2 3 3 2 1 1 2 2 1 2 1 2 3 3 2 2 3 3 3 3 3 4 5 6 7 7 4 4 4 3 4 5 5 5 4 4 3 3
8 9 9 9 9 9 9 9 9 9 9 8 8 7 7 6 5 5 4 5 4 4 4 4 4 4 4 3 3 4 5 5 5 5 4 5 5 5 4 4 4 4 4 4 3 3 3 3 3 3 3 3 3 3 3 2 3 2 1 3 3 2 2 2 3 3 4 3 3 3 2 3 3 4 8 7 4 5 5 5 5 7 6 4 4 5 4 4
7 7 8 8 9 9 9 10 10 10 10 10 11 10 10 10 10 9 8 7 6 6 5 5 4 5 5 5 4 5 5 4 5 6 5 5 5 5 5 5 5 5 5 5 4 4 4 4 4 4 4 4 3 3 4 4 4 3 1 2 2 2 2 3 3 3 3 3 4 5 4 3 2 4 7 5 4 7 7 7 7 7 5 3 4 4 4 4
5 5 5 5 6 6 6 6 6 7 7 8 8 9 9 10 10 11 11 11 10 9 8 7 7 6 5 5 5 6 5 4 4 5 5 6 6 6 6 6 6 5 5 5 5 5 5 4 4 4 4 5 4 3 4 4 4 4 3 3 3 3 3 2 2 2 3 2 4 5 4 4 3 5 6 3 4 7 6 6 6 3 2 3 3 2 3 4
5 4 4 4 4 4 4 4 4 4 4 5 5 5 6 7 7 8 8 9 9 10 10 10 9 9 8 8 8 8 7 6 7 6 6 6 6 7 7 6 6 6 6 5 5 5 5 5 5 4 5 5 5 5 5 5 5 5 5 4 3 3 3 2 2 3 4 3 3 4 3 3 5 5 3 2 4 5 4 4 4 2 2 3 2 2 3 3
5 5 6 5 5 5 5 4 4 4 4 4 4 4 4 5 5 6 6 6 7 7 7 8 8 8 8 9 10 9 8 8 8 8 8 7 6 6 6 7 7 7 7 6 7 7 6 6 5 5 5 5 6 6 5 5 5 4 5 5 3 4 4 3 4 3 5 6 4 4 2 1 5 5 3 2 3 4 4 4 4 4 3 2 1 2 2 2
4 4 4 4 5 5 5 5 5 5 5 5 5 5 5 5 5 5 5 5 6 6 6 6 6 6 5 6 8 7 8 9 8 8 8 7 7 7 7 7 7 7 7 7 8 7 6 6 6 5 6 6 7 6 6 5 5 5 6 7 6 5 4 3 5 4 3 5 4 5 4 1 3 3 1 2 2 3 5 4 4 4 4 4 3 3 2 2
6 5 5 5 4 4 5 5 5 5 6 6 6 6 6 6 6 6 5 5 6 6 6 6 6 6 5 5 6 6 7 7 8 8 8 7 8 9 8 8 7 7 7 8 7 7 7 6 6 6 6 8 7 5 7 7 8 8 7 8 9 8 5 4 4 5 4 4 3 4 6 3 2 4 2 1 1 1 4 4 4 4 4 5 4 4 4 4
8 8 7 7 7 6 6 5 6 6 6 6 6 6 6 6 6 6 6 6 6 6 6 7 7 7 7 7 8 8 7 6 7 7 7 8 10 10 10 10 9 8 8 7 7 7 6 6 7 8 7 8 6 6 7 8 9 9 8 7 7 7 7 6 5 6 5 4 4 4 6 5 2 4 4 2 2 3 4 4 4 5 4 4 5 4 4 6
8 9 8 8 8 8 8 7 7 6 6 7 6 6 6 6 6 6 6 6 6 6 6 6 6 6 6 7 7 8 8 7 6 6 7 8 9 9 9 9 9 9 9 8 8 8 8 8 8 7 7 7 6 7 8 9 11 11 9 7 6 6 8 9 8 7 7 6 6 4 5 6 6 6 6 5 4 4 5 4 5 6 6 5 5 4 4 4
6 6 7 8 8 8 8 8 8 7 7 7 6 6 5 5 5 5 5 5 5 5 5 6 6 6 6 5 5 6 7 7 6 6 7 7 7 8 8 9 9 9 9 9 8 8 8 8 7 7 7 6 7 10 10 11 12 9 6 6 7 9 8 9 10 9 9 8 6 6 7 8 8 6 6 7 7 7 8 6 6 6 7 7 6 7 6 4
4 5 5 6 6 7 6 7 7 7 7 7 7 6 6 5 5 4 3 3 3 3 4 5 5 6 7 8 6 5 5 5 5 5 6 6 6 7 7 8 9 8 8 8 8 8 8 7 6 5 6 8 12 13 12 10 10 7 6 7 8 8 8 9 10 8 7 8 7 7 9 10 10 8 7 7 7 8 9 9 7 7 7 7 7 8 8 6
5 4 5 6 5 5 3 3 4 4 5 6 6 6 6 5 5 5 4 4 3 3 3 3 2 4 5 7 8 7 7 6 4 3 4 5 5 6 7 7 7 7 7 7 7 7 6 5 6 6 9 14 15 12 10 8 8 8 9 8 8 8 8 10 9 7 7 8 7 6 7 9 10 9 9 10 9 8 9 9 8 9 9 9 8 7 7 7
6 6 6 6 4 0 -2 -1 -0 1 3 4 5 5 5 5 5 5 5 5 6 5 4 3 3 3 3 4 6 7 7 8 9 7 5 4 4 4 5 5 6 6 7 7 6 6 5 5 5 7 10 13 11 7 5 7 9 10 10 11 11 11 11 13 12 10 9 9 8 8 8 8 8 9 9 12 13 12 10 9 10 11 11 11 11 8 7 8
5 6 6 4 -0 -4 -5 -4 -1 1 4 4 4 5 4 4 4 4 4 5 6 6 6 5 5 5 5 4 4 4 4 6 8 11 11 9 7 4 3 3 4 4 5 6 5 4 3 4 5 7 10 9 5 3 4 7 8 6 6 8 9 9 10 11 11 10 10 10 10 9 8 8 8 8 9 11 13 14 13 12 12 12 13 13 13 10 8 8
6 6 5 2 -3 -5 -3 1 5 7 8 7 6 6 6 5 4 4 3 4 5 5 5 6 5 5 6 5 4 4 4 5 6 10 14 14 14 14 9 4 3 3 4 4 5 6 5 4 5 6 6 3 1 3 5 6 4 2 2 1 1 4 7 8 8 8 9 8 7 7 7 8 7 8 9 10 11 11 12 13 14 15 17 15 10 8 8 9
11 10 8 6 5 7 10 12 13 13 11 10 8 7 7 6 6 5 4 4 5 5 4 5 5 6 6 6 6 6 5 7 6 7 11 12 16 21 19 15 10 5 4 3 3 4 4 3 2 1 1 1 2 4 5 3 1 0 1 -0 1 4 7 7 6 7 7 7 7 7 7 7 7 8 9 9 10 10 10 12 14 15 13 10 7 7 9 9
10 11 12 13 13 13 13 12 11 10 10 10 9 9 9 8 8 7 7 7 8 9 7 5 5 4 5 5 5 5 5 7 6 7 11 10 11 14 17 20 18 12 8 5 5 4 3 2 2 2 2 3 4 4 4 3 0 1 3 3 5 8 8 6 5 5 5 6 7 6 10 13 12 14 15 15 14 11 10 9 10 11 9 9 9 9 8 6
8 10 11 10 9 8 7 7 9 9 10 11 10 10 8 8 9 8 9 9 9 13 12 10 8 7 7 7 7 8 6 7 7 7 6 6 8 10 11 13 16 17 14 9 8 7 4 3 4 4 4 5 5 3 3 3 1 3 7 7 7 7 5 4 3 4 3 5 5 5 9 11 13 15 15 17 17 14 15 13 13 12 7 8 7 4 4 6
7 7 7 5 5 7 7 7 8 9 10 11 12 12 11 10 10 9 10 6 4 8 12 12 11 10 10 9 9 8 3 3 7 6 5 7 9 10 8 8 9 13 16 16 13 10 7 5 4 5 5 4 3 3 6 9 8 6 5 5 5 4 5 5 5 5 5 5 5 5 6 5 10 13 8 8 10 11 14 12 9 5 2 5 6 1 -1 5
7 6 4 4 5 6 6 6 7 8 10 10 11 12 11 11 10 10 10 4 -0 2 5 7 8 11 14 14 14 12 7 9 12 9 7 7 5 3 3 6 8 8 12 14 12 14 15 11 7 6 6 5 4 5 7 6 5 5 3 3 4 4 5 5 6 7 6 6 6 4 3 3 6 6 3 3 3 4 7 3 2 5 4 2 2 2 5 12
6 4 2 2 3 5 6 6 7 7 8 8 9 10 10 10 9 9 8 3 1 5 6 8 12 13 15 15 16 17 15 13 12 10 9 8 7 7 7 8 9 8 10 9 6 11 15 12 10 8 5 4 3 3 4 2 2 5 5 2 2 4 7 8 7 6 4 5 4 2 4 4 0 -3 -3 3 6 6 6 4 5 7 3 -1 -0 4 10 15
4 2 3 2 2 4 6 6 6 7 7 7 7 7 8 8 7 8 5 -0 3 8 9 10 10 8 9 11 13 13 13 12 11 12 12 11 10 11 12 11 11 13 14 10 7 8 10 11 13 13 11 10 8 7 5 4 4 5 4 4 6 7 8 6 5 4 4 5 5 4 5 4 3 7 7 6 5 4 4 5 4 1 1 4 4 4 7 9
3 3 4 2 2 4 5 5 6 7 7 7 6 6 7 6 5 6 2 -1 6 8 7 8 7 7 7 6 4 5 7 8 10 12 10 11 12 12 12 10 9 10 7 4 5 6 8 9 10 12 15 16 15 12 9 6 5 7 7 8 8 7 5 5 4 5 5 5 7 6 4 3 5 8 8 4 3 4 5 4 2 1 5 5 1 4 13 14
6 6 6 2 2 3 3 5 7 7 7 6 5 4 5 4 2 2 -0 3 9 6 3 6 5 6 4 0 1 4 4 5 6 8 8 8 10 11 10 7 6 8 7 7 7 8 9 7 7 9 11 13 16 17 16 14 11 10 10 9 8 7 7 7 6 5 2 0 3 3 2 4 3 -1 -0 3 5 7 5 3 3 4 3 -1 0 12 21 17
11 8 6 3 1 2 3 5 6 7 7 6 5 4 4 3 5 7 4 3 5 1 0 1 -1 -0 0 1 5 4 1 3 3 3 5 7 10 9 5 2 3 5 9 10 9 11 11 7 6 7 6 7 11 14 16 19 19 16 11 9 11 10 8 8 5 3 3 -0 1 2 1 3 3 2 3 2 2 4 2 2 3 2 -0 0 8 20 20 11
9 8 10 6 2 3 5 6 8 8 8 7 5 4 3 3 8 12 5 1 3 0 -2 -0 -1 2 5 5 3 0 0 3 2 0 4 7 8 6 2 3 5 4 7 9 8 8 10 9 4 4 9 8 7 9 11 14 17 16 14 10 6 5 6 8 5 3 4 4 4 5 4 5 6 7 9 7 5 5 4 3 2 3 6 11 19 21 13 7
6 8 12 8 3 4 5 6 7 9 11 10 7 6 5 4 5 7 3 -1 -1 -1 -3 -3 -3 2 9 8 3 3 6 8 6 6 8 10 8 6 4 3 2 2 4 8 9 7 12 16 5 -1 7 6 1 4 6 8 8 9 17 15 5 5 9 7 4 6 8 7 6 6 3 2 3 5 7 9 9 8 7 6 7 9 11 17 23 17 8 11
7 9 13 10 3 -1 -1 1 5 8 8 6 4 4 5 6 5 6 4 -1 1 9 10 7 4 6 8 6 3 3 5 5 4 4 7 9 7 5 3 -1 -2 1 2 4 6 3 12 21 6 -4 6 6 1 1 1 5 5 3 8 11 9 13 13 7 6 9 10 5 4 9 6 0 3 6 6 7 7 6 6 7 8 9 13 18 17 9 8 17
2 2 6 8 2 -4 -5 -4 -1 3 6 10 13 8 4 6 8 10 7 -0 4 15 17 14 15 13 8 4 2 1 0 1 1 2 4 4 3 3 2 -1 -1 2 4 5 2 -1 9 19 9 1 9 9 4 3 3 5 7 4 1 1 9 15 12 8 7 7 8 3 -2 5 6 0 5 13 13 10 5 3 4 4 5 7 12 16 15 16 23 22
-2 -5 -6 -4 -1 2 7 9 8 5 4 8 12 7 2 5 6 8 8 4 5 8 8 8 10 10 10 6 3 1 1 3 4 3 3 4 7 6 3 3 3 3 3 5 5 6 9 15 15 12 12 10 5 6 9 9 9 8 6 3 5 5 5 9 9 6 8 2 -6 0 6 3 5 6 5 6 4 4 4 2 6 11 12 16 26 32 28 15
6 5 -2 -5 -1 3 3 8 12 13 11 7 1 -4 -3 -0 1 3 5 5 7 10 10 8 5 6 6 3 2 4 3 5 6 5 5 8 9 5 2 6 7 6 6 8 12 12 8 12 17 12 8 11 12 12 11 11 10 10 13 16 15 11 9 10 8 6 9 6 1 6 8 6 5 0 -1 5 4 2 1 4 11 11 6 13 25 28 18 2
9 10 6 2 8 10 1 -6 -9 -7 2 8 7 7 8 4 0 2 2 -0 2 7 10 9 8 8 7 5 6 6 5 5 6 7 8 8 6 3 2 3 3 3 6 8 10 7 4 9 11 9 11 10 8 7 7 10 14 15 19 20 17 14 11 9 6 4 5 4 3 4 3 3 3 0 3 6 3 4 7 10 11 5 4 13 16 14 10 1
6 7 8 5 9 15 13 8 -2 -10 -9 -5 -1 6 14 15 8 2 0 0 3 6 9 13 13 10 9 9 6 5 7 9 7 7 6 1 1 2 -0 -2 -0 4 5 3 3 3 4 5 6 12 14 6 3 9 13 14 12 10 12 9 3 2 7 12 9 5 8 10 5 0 -2 -1 3 4 8 10 10 13 11 7 4 2 8 15 7 -3 -4 -7
4 6 9 7 5 8 9 9 8 6 4 -0 -6 -6 1 10 14 9 3 -1 -2 -2 1 9 14 13 12 10 6 2 3 4 3 3 2 -2 -0 3 3 2 2 4 6 3 0 -1 1 6 9 9 3 1 13 21 17 12 9 4 2 -0 -3 -2 3 6 1 -0 9 13 10 6 -3 -4 5 7 8 11 8 5 5 4 3 4 11 12 -2 -11 -5 1
6 7 11 8 4 5 5 5 6 7 8 6 4 1 -5 -5 0 5 6 4 -0 -3 -2 1 6 10 14 14 14 12 8 5 4 1 -0 2 2 3 4 4 4 6 7 6 6 6 6 7 6 3 4 8 11 6 -2 -4 -5 -7 -6 -5 -6 -6 -3 -0 -1 2 9 9 9 11 1 -5 4 7 5 7 4 -0 3 2 0 7 14 5 -10 -5 13 20
8 9 12 9 5 4 4 5 6 5 5 4 7 9 6 2 -2 -6 -6 -5 -3 2 6 9 11 12 13 15 18 19 16 15 16 13 12 14 12 10 11 8 7 11 12 11 13 12 7 3 1 5 13 12 2 -5 -3 -2 -4 -4 -2 -3 -5 -3 3 9 10 9 10 8 4 5 2 -4 3 9 3 1 2 1 0 1 7 17 13 -2 -3 12 20 14
10 10 11 11 9 6 4 5 6 6 8 7 6 6 6 9 10 6 -0 -8 -9 -6 -3 4 10 9 9 7 6 11 14 16 22 23 25 28 22 17 21 25 24 25 24 21 18 15 7 3 9 15 13 7 4 5 8 10 11 10 9 8 9 11 11 14 17 13 10 10 8 13 17 8 5 13 9 3 5 3 4 10 13 9 2 0 10 14 6 1
11 11 11 10 9 7 6 6 6 8 9 8 9 8 5 6 8 8 7 2 -1 -4 -9 -10 -13 -17 -15 -16 -16 -8 -9 -13 -10 -10 -3 15 24 18 14 13 14 13 11 10 12 18 23 26 30 29 20 11 5 4 7 11 12 11 10 10 10 10 10 12 16 15 14 16 15 14 16 10 8 16 15 10 10 8 11 13 8 8 13 11 6 1 0 4
12 11 10 10 10 9 9 7 5 7 9 9 11 11 8 9 9 7 5 5 6 3 -1 -3 -9 -14 -12 -17 -18 -13 -22 -29 -23 -22 -23 -13 4 19 20 13 11 9 8 11 12 14 23 30 28 24 27 32 28 22 22 22 18 17 20 21 18 16 15 13 11 11 12 14 13 7 3 2 2 2 2 6 9 8 8 5 6 20 25 7 -8 -4 4 7
11 12 12 13 13 12 12 11 6 4 5 8 12 13 12 12 11 9 7 8 8 2 -1 4 5 6 8 -0 -6 -5 -12 -17 -9 -3 -6 -16 -21 -11 -1 0 2 1 -1 5 8 4 5 8 4 -1 3 16 31 39 39 33 30 26 20 20 21 19 18 16 12 9 3 2 5 4 -2 -4 -1 4 9 12 8 4 5 7 10 12 3 -9 -6 1 3 8
10 12 13 14 14 14 14 13 11 8 6 4 4 7 10 10 9 10 10 10 9 4 1 4 5 5 8 7 4 8 8 4 4 6 7 4 -6 -13 -16 -20 -23 -27 -30 -25 -19 -20 -19 -11 -5 -5 -8 -7 4 13 10 11 21 23 20 20 20 26 32 24 14 10 5 7 15 16 12 9 9 11 10 10 10 8 7 9 9 4 -4 -4 4 8 9 14
12 13 14 13 12 11 12 13 15 15 13 10 10 11 10 9 9 11 10 8 9 9 6 9 12 8 6 4 2 9 13 11 12 11 3 4 10 9 6 1 -10 -21 -25 -18 -10 -14 -20 -17 -21 -31 -26 -15 -6 -0 -1 -2 1 1 4 0 -5 10 23 16 13 17 13 16 22 21 22 19 9 5 9 15 20 16 12 12 12 12 14 14 14 18 20 18
14 13 13 13 12 11 13 14 14 15 14 13 14 15 15 16 16 16 15 12 14 16 10 7 10 10 11 11 7 7 8 2 4 11 8 8 13 14 14 13 9 3 -5 -6 1 -3 -8 -2 -10 -26 -21 -14 -18 -17 -13 -15 -20 -25 -27 -31 -25 3 19 14 16 16 9 16 20 13 16 15 4 7 20 24 21 19 19 20 18 21 26 23 19 16 11 5
14 12 11 12 11 9 11 12 12 13 13 10 10 12 16 20 22 24 25 20 14 16 16 13 13 11 11 13 11 7 9 6 6 12 14 11 11 11 13 14 13 14 10 5 6 3 -1 6 9 3 7 6 -11 -26 -30 -30 -26 -19 -11 -5 4 13 6 -10 -13 -11 -8 5 7 3 15 25 22 22 23 20 20 21 17 13 16 22 17 9 9 10 8 10
14 14 13 12 11 8 8 10 12 11 10 9 11 12 10 11 11 12 16 17 12 13 21 28 33 32 25 23 24 26 29 29 26 22 16 9 7 7 9 15 16 15 13 10 10 10 4 3 10 15 22 27 16 -2 -3 5 7 14 24 13 -11 -27 -32 -28 -19 -13 -10 -6 -9 -9 -1 4 9 17 17 16 12 0 -5 7 22 23 13 12 21 26 25 24
Height
5884 5884 5884 5884 5884 5885 5885 5885 5885 5885 5885 5885 5885 5885 5885 5885 5885 5885 5885 5885 5885 5885 5885 5885 5885 5884 5884 5884 5884 5884 5884 5884 5884 5883 5883 5883 5882 5882 5881 5880 5880 5879 5878 5877 5877 5876 5875 5874 5874 5873 5872 5872 5871 5870 5869 5869 5868 5867 5866 5865 5864 5864 5863 5862 5861 5860 5860 5859 5859 5858 5857 5856 5856 5855 5853 5853 5852 5852 5851 5851 5850 5850 5849 5849 5848 5848 5847 5846
5882 5882 5882 5882 5883 5883 5883 5883 5883 5883 5883 5883 5883 5883 5883 5883 5883 5883 5883 5883 5883 5883 5883 5883 5883 5883 5882 5882 5882 5882 5882 5882 5882 5881 5881 5881 5880 5880 5879 5879 5878 5877 5877 5876 5875 5874 5874 5873 5873 5872 5871 5871 5870 5869 5868 5867 5867 5866 5865 5864 5863 5862 5862 5861 5860 5859 5858 5858 5858 5857 5856 5855 5855 5854 5852 5852 5851 5851 5850 5850 5849 5848 5848 5847 5847 5847 5846 5845
5880 5880 5880 5880 5881 5881 5881 5881 5881 5881 5881 5881 5881 5881 5881 5881 5881 5881 5881 5881 5881 5881 5881 5881 5881 5881 5880 5880 5880 5880 5880 5880 5880 5879 5879 5879 5878 5878 5877 5877 5876 5876 5875 5874 5873 5873 5872 5871 5871 5870 5870 5869 5869 5868 5867 5866 5865 5865 5864 5863 5862 5861 5860 5860 5859 5858 5858 5856 5856 5856 5855 5854 5853 5853 5852 5850 5850 5849 5849 5848 5848 5847 5847 5846 5845 5845 5845 5844
5877 5877 5878 5878 5878 5878 5879 5879 5879 5879 5879 5879 5879 5879 5879 5879 5879 5879 5879 5879 5879 5879 5879 5879 5879 5878 5878 5878 5878 5878 5878 5878 5878 5877 5877 5877 5876 5876 5875 5875 5874 5874 5873 5872 5871 5871 5870 5869 5869 5868 5868 5867 5867 5866 5865 5864 5864 5863 5862 5861 5861 5860 5859 5859 5858 5857 5856 5855 5855 5854 5854 5853 5852 5852 5851 5849 5848 5848 5848 5847 5846 5846 5846 5845 5844 5843 5843 5842
5875 5875 5875 5875 5876 5876 5876 5876 5876 5877 5877 5877 5877 5877 5877 5877 5876 5876 5877 5876 5876 5876 5876 5876 5876 5876 5876 5876 5876 5876 5876 5876 5875 5875 5875 5874 5874 5874 5873 5873 5872 5872 5871 5870 5869 5868 5868 5867 5867 5866 5866 5865 5864 5864 5863 5862 5862 5861 5861 5860 5859 5858 5858 5857 5856 5855 5855 5854 5853 5852 5852 5851 5851 5850 5849 5848 5846 5846 5847 5845 5845 5844 5844 5844 5843 5842 5842 5841
5872 5872 5872 5873 5873 5873 5873 5874 5874 5874 5874 5874 5874 5874 5874 5874 5874 5874 5874 5874 5874 5874 5874 5874 5874 5874 5874 5873 5873 5873 5874 5873 5873 5873 5872 5872 5871 5871 5871 5870 5870 5869 5869 5868 5867 5866 5866 5865 5864 5864 5863 5862 5862 5861 5861 5860 5859 5859 5859 5857 5857 5856 5855 5855 5855 5853 5853 5852 5851 5851 5850 5849 5849 5849 5848 5846 5844 5844 5845 5844 5843 5843 5842 5842 5842 5840 5839 5839
5869 5869 5869 5870 5870 5870 5870 5871 5871 5871 5871 5871 5871 5871 5871 5871 5871 5871 5871 5871 5871 5871 5871 5871 5871 5871 5871 5871 5871 5871 5871 5870 5869 5870 5870 5869 5869 5868 5868 5868 5867 5867 5866 5865 5865 5864 5863 5863 5862 5861 5861 5860 5859 5858 5858 5858 5857 5857 5856 5855 5855 5854 5853 5853 5853 5852 5851 5850 5849 5849 5848 5847 5847 5847 5846 5844 5842 5842 5843 5842 5841 5840 5840 5840 5840 5839 5838 5837
5866 5866 5866 5867 5867 5867 5867 5868 5868 5868 5868 5868 5868 5868 5868 5868 5868 5868 5868 5868 5868 5868 5868 5867 5868 5867 5867 5868 5868 5869 5869 5867 5866 5867 5867 5866 5866 5866 5865 5865 5864 5864 5863 5863 5862 5862 5861 5860 5859 5858 5858 5857 5856 5855 5855 5854 5854 5854 5853 5852 5852 5852 5850 5850 5850 5849 5848 5848 5847 5847 5846 5845 5845 5845 5845 5841 5840 5840 5840 5839 5838 5838 5838 5838 5837 5836 5836 5835
5863 5863 5864 5864 5864 5864 5864 5865 5865 5865 5865 5865 5865 5865 5865 5864 5864 5864 5864 5864 5864 5864 5864 5864 5864 5864 5864 5864 5864 5866 5866 5863 5863 5864 5863 5863 5863 5862 5862 5862 5861 5861 5860 5860 5859 5858 5858 5857 5856 5855 5854 5854 5853 5852 5851 5851 5851 5850 5849 5849 5850 5849 5848 5847 5847 5846 5845 5845 5844 5844 5844 5843 5842 5843 5843 5838 5837 5838 5838 5837 5836 5835 5835 5835 5835 5834 5833 5832
5860 5861 5861 5861 5861 5861 5861 5861 5861 5862 5862 5862 5862 5862 5861 5861 5861 5861 5861 5861 5860 5860 5860 5860 5860 5860 5860 5859 5861 5863 5862 5860 5860 5860 5860 5860 5859 5859 5859 5859 5858 5858 5857 5856 5856 5855 5854 5853 5853 5852 5851 5851 5850 5849 5849 5848 5847 5846 5845 5846 5846 5845 5845 5844 5844 5843 5842 5842 5841 5840 5840 5840 5840 5841 5841 5837 5835 5835 5834 5834 5834 5833 5832 5831 5832 5831 5831 5830
5857 5858 5858 5858 5858 5858 5858 5858 5858 5858 5858 5858 5858 5858 5858 5858 5857 5857 5857 5857 5857 5857 5856 5856 5856 5856 5856 5855 5857 5859 5858 5857 5857 5857 5856 5856 5856 5856 5856 5855 5855 5854 5853 5853 5853 5851 5850 5850 5849 5848 5847 5847 5846 5846 5846 5845 5844 5842 5841 5842 5842 5841 5841 5841 5840 5839 5837 5838 5838 5836 5836 5837 5838 5839 5838 5835 5833 5832 5831 5831 5831 5831 5830 5828 5828 5828 5828 5827
5854 5854 5854 5854 5854 5855 5855 5854 5855 5855 5855 5855 5855 5855 5855 5855 5854 5853 5853 5853 5853 5853 5853 5852 5852 5851 5851 5852 5854 5855 5854 5853 5853 5853 5852 5852 5852 5852 5852 5852 5851 5851 5850 5850 5849 5848 5847 5846 5845 5844 5843 5843 5842 5842 5842 5842 5840 5839 5837 5837 5839 5838 5836 5837 5836 5836 5834 5833 5834 5831 5830 5834 5835 5835 5835 5833 5832 5830 5828 5828 5827 5827 5827 5825 5825 5824 5824 5824
5850 5850 5851 5851 5851 5851 5851 5851 5851 5851 5851 5851 5851 5851 5851 5851 5851 5850 5849 5849 5849 5849 5849 5848 5848 5847 5847 5849 5851 5851 5849 5849 5849 5848 5848 5847 5848 5848 5848 5848 5848 5847 5847 5846 5846 5845 5843 5843 5841 5840 5840 5839 5838 5838 5838 5838 5836 5836 5833 5832 5834 5833 5832 5834 5832 5832 5832 5830 5830 5826 5824 5830 5833 5831 5830 5830 5830 5828 5827 5825 5824 5823 5823 5822 5821 5820 5820 5820
5846 5846 5847 5847 5847 5847 5847 5847 5847 5847 5847 5847 5847 5846 5846 5847 5847 5847 5846 5846 5846 5845 5845 5844 5844 5843 5843 5845 5848 5847 5846 5845 5844 5844 5843 5843 5844 5844 5844 5844 5844 5843 5843 5842 5842 5841 5840 5839 5837 5836 5836 5835 5835 5834 5833 5833 5832 5832 5829 5828 5829 5826 5828 5831 5829 5828 5827 5826 5826 5822 5819 5825 5829 5827 5824 5825 5826 5825 5824 5823 5822 5820 5819 5818 5817 5817 5816 5816
5842 5843 5843 5843 5843 5843 5843 5843 5843 5843 5843 5843 5842 5841 5842 5842 5843 5843 5842 5842 5842 5841 5841 5840 5840 5839 5838 5842 5845 5843 5842 5841 5840 5839 5838 5839 5840 5840 5841 5840 5839 5839 5838 5838 5837 5837 5836 5835 5833 5832 5832 5832 5832 5830 5828 5827 5828 5828 5824 5823 5824 5821 5822 5825 5824 5824 5822 5820 5821 5818 5816 5819 5823 5824 5821 5819 5819 5820 5821 5820 5819 5818 5816 5815 5813 5813 5812 5812
5838 5838 5839 5839 5839 5839 5839 5839 5838 5839 5839 5839 5838 5837 5837 5838 5839 5839 5838 5839 5838 5838 5837 5836 5836 5834 5832 5837 5841 5839 5839 5837 5835 5835 5835 5836 5836 5837 5837 5836 5835 5835 5834 5834 5833 5833 5832 5831 5829 5828 5828 5829 5829 5826 5823 5822 5825 5824 5818 5817 5819 5817 5817 5818 5818 5820 5817 5815 5814 5812 5812 5815 5817 5818 5818 5815 5814 5814 5815 5816 5815 5814 5814 5812 5810 5809 5809 5808
5834 5834 5834 5835 5835 5835 5835 5834 5834 5835 5835 5835 5834 5833 5833 5833 5834 5834 5834 5835 5834 5834 5833 5831 5832 5830 5828 5832 5835 5835 5835 5833 5831 5831 5831 5831 5832 5833 5832 5832 5831 5831 5830 5829 5829 5829 5828 5826 5825 5824 5824 5826 5826 5823 5819 5818 5821 5820 5813 5810 5812 5813 5812 5812 5813 5814 5811 5808 5806 5805 5806 5810 5812 5811 5812 5812 5810 5809 5809 5810 5810 5810 5809 5808 5806 5805 5806 5805
5830 5830 5830 5830 5830 5830 5830 5830 5830 5830 5830 5830 5830 5829 5828 5828 5828 5828 5829 5830 5830 5830 5829 5827 5826 5824 5825 5828 5829 5830 5831 5829 5828 5827 5827 5828 5829 5828 5828 5828 5827 5827 5826 5825 5825 5825 5823 5821 5820 5819 5821 5823 5822 5819 5815 5815 5816 5813 5811 5807 5806 5808 5807 5808 5809 5807 5805 5802 5799 5798 5799 5804 5807 5806 5807 5808 5806 5804 5804 5805 5805 5805 5805 5803 5801 5800 5800 5800
5825 5825 5826 5826 5826 5826 5825 5826 5826 5825 5826 5826 5825 5824 5824 5822 5822 5822 5824 5825 5825 5825 5824 5822 5821 5820 5820 5823 5824 5824 5825 5825 5824 5824 5824 5824 5825 5824 5824 5824 5823 5823 5822 5821 5821 5819 5818 5816 5814 5815 5820 5821 5818 5815 5811 5811 5810 5808 5807 5805 5802 5802 5802 5806 5806 5800 5798 5796 5793 5793 5792 5794 5799 5800 5801 5803 5803 5801 5801 5800 5800 5800 5800 5800 5799 5796 5794 5794
5820 5820 5821 5821 5821 5821 5821 5821 5821 5821 5820 5820 5820 5819 5818 5817 5816 5816 5817 5818 5819 5819 5818 5816 5815 5816 5816 5817 5819 5819 5819 5819 5819 5821 5821 5821 5821 5820 5820 5820 5819 5819 5818 5818 5815 5813 5813 5810 5808 5813 5818 5817 5813 5809 5807 5806 5806 5804 5803 5801 5800 5798 5798 5803 5802 5796 5794 5790 5787 5790 5786 5786 5792 5794 5795 5797 5798 5797 5797 5796 5795 5795 5795 5796 5795 5793 5790 5788
5815 5815 5816 5816 5816 5816 5816 5816 5816 5815 5815 5815 5815 5814 5813 5812 5811 5810 5810 5812 5813 5813 5813 5812 5809 5810 5813 5812 5812 5813 5813 5813 5815 5818 5818 5817 5816 5816 5816 5816 5814 5814 5815 5813 5807 5807 5808 5804 5806 5813 5814 5811 5808 5805 5803 5801 5801 5800 5798 5797 5796 5795 5795 5798 5796 5792 5790 5784 5782 5784 5780 5779 5786 5789 5789 5791 5792 5792 5793 5792 5790 5791 5791 5791 5790 5788 5786 5784
5810 5810 5811 5811 5811 5811 5810 5810 5810 5810 5809 5809 5809 5808 5807 5806 5805 5804 5803 5802 5807 5809 5808 5807 5805 5804 5806 5806 5807 5809 5807 5808 5812 5814 5813 5812 5812 5812 5811 5810 5808 5809 5809 5805 5803 5804 5800 5798 5804 5810 5807 5805 5803 5802 5800 5797 5796 5795 5794 5791 5789 5792 5792 5791 5790 5788 5785 5780 5777 5778 5773 5773 5780 5783 5785 5787 5787 5786 5786 5786 5788 5788 5788 5787 5785 5782 5781 5781
5804 5805 5805 5805 5805 5805 5804 5804 5804 5804 5803 5803 5803 5802 5801 5801 5800 5799 5796 5793 5797 5803 5802 5802 5801 5798 5799 5800 5801 5803 5802 5805 5807 5807 5808 5807 5807 5807 5805 5803 5803 5804 5801 5798 5801 5800 5793 5793 5799 5802 5801 5800 5799 5798 5795 5794 5794 5791 5789 5786 5784 5789 5788 5784 5783 5782 5780 5776 5772 5772 5767 5765 5773 5778 5780 5783 5782 5781 5781 5781 5784 5785 5784 5782 5780 5778 5777 5777
5798 5799 5799 5799 5799 5799 5799 5799 5798 5798 5798 5798 5797 5796 5796 5795 5794 5793 5792 5788 5786 5791 5797 5798 5795 5793 5795 5795 5795 5797 5798 5801 5801 5802 5805 5803 5802 5801 5799 5798 5796 5795 5795 5795 5796 5793 5789 5789 5791 5794 5797 5796 5794 5792 5790 5789 5791 5788 5784 5782 5782 5786 5783 5779 5778 5774 5772 5771 5769 5767 5759 5756 5767 5773 5775 5779 5778 5777 5778 5777 5779 5780 5779 5778 5776 5776 5774 5772
5793 5793 5793 5793 5793 5792 5793 5793 5793 5792 5793 5792 5791 5791 5790 5789 5789 5788 5787 5784 5778 5780 5788 5791 5788 5787 5790 5791 5792 5794 5794 5794 5795 5797 5800 5798 5797 5796 5795 5793 5789 5788 5791 5791 5789 5785 5784 5785 5786 5788 5790 5790 5788 5786 5785 5785 5785 5783 5779 5779 5781 5781 5779 5776 5775 5769 5764 5763 5763 5762 5753 5747 5758 5767 5769 5773 5774 5774 5775 5774 5776 5776 5774 5774 5773 5772 5771 5769
5787 5787 5787 5787 5787 5787 5787 5787 5787 5787 5786 5787 5785 5785 5785 5784 5784 5783 5782 5779 5771 5770 5776 5781 5782 5782 5786 5790 5791 5790 5788 5789 5792 5793 5793 5792 5791 5790 5788 5787 5785 5784 5785 5784 5782 5777 5777 5780 5783 5784 5784 5783 5781 5779 5781 5781 5779 5776 5774 5776 5777 5776 5774 5772 5771 5765 5759 5758 5756 5753 5749 5743 5747 5759 5766 5766 5767 5769 5770 5771 5773 5771 5769 5769 5768 5767 5765 5763
5781 5781 5781 5781 5781 5781 5781 5781 5781 5781 5781 5780 5780 5780 5779 5779 5779 5778 5778 5773 5762 5760 5766 5770 5775 5780 5783 5787 5788 5785 5783 5786 5788 5788 5787 5786 5785 5784 5783 5782 5781 5781 5780 5778 5774 5772 5774 5775 5777 5778 5778 5776 5774 5775 5778 5776 5771 5769 5770 5772 5770 5770 5769 5767 5765 5762 5756 5755 5750 5744 5746 5742 5738 5748 5759 5759 5759 5762 5765 5768 5769 5768 5765 5764 5762 5761 5759 5757
5774 5775 5775 5775 5775 5775 5775 5775 5775 5776 5775 5774 5775 5774 5773 5774 5774 5773 5774 5765 5752 5752 5759 5764 5770 5774 5777 5779 5782 5781 5780 5781 5782 5780 5781 5780 5779 5778 5777 5777 5776 5775 5775 5771 5768 5769 5770 5769 5770 5771 5770 5769 5770 5771 5772 5769 5766 5765 5766 5765 5764 5764 5763 5761 5759 5757 5754 5749 5741 5739 5745 5743 5734 5739 5748 5748 5750 5757 5760 5763 5763 5763 5762 5760 5759 5755 5751 5749
5768 5768 5769 5769 5769 5769 5769 5769 5769 5769 5769 5769 5769 5768 5768 5769 5768 5770 5768 5754 5744 5748 5756 5762 5766 5767 5769 5770 5772 5773 5774 5776 5775 5774 5775 5773 5772 5772 5771 5771 5771 5768 5767 5765 5764 5766 5765 5764 5765 5764 5762 5764 5765 5765 5764 5763 5761 5760 5761 5759 5758 5757 5756 5756 5753 5751 5750 5741 5733 5736 5743 5740 5730 5731 5738 5736 5741 5749 5753 5756 5758 5758 5758 5757 5756 5754 5749 5744
5761 5762 5762 5763 5764 5763 5763 5764 5763 5762 5763 5763 5763 5763 5763 5763 5763 5764 5756 5743 5744 5750 5753 5757 5760 5761 5763 5763 5762 5763 5765 5768 5769 5769 5769 5767 5766 5766 5764 5764 5764 5762 5761 5759 5758 5762 5762 5760 5758 5757 5758 5759 5758 5758 5758 5757 5755 5755 5756 5753 5752 5751 5750 5749 5746 5745 5741 5732 5730 5736 5740 5738 5724 5720 5728 5731 5734 5740 5742 5746 5750 5752 5753 5752 5752 5751 5748 5743
5754 5755 5756 5757 5758 5757 5757 5758 5757 5756 5757 5757 5757 5757 5756 5757 5758 5754 5743 5740 5746 5749 5749 5752 5753 5755 5757 5757 5756 5756 5756 5758 5760 5761 5762 5762 5761 5759 5758 5757 5756 5755 5755 5753 5753 5756 5756 5754 5753 5753 5753 5752 5752 5752 5752 5751 5750 5750 5750 5748 5746 5745 5743 5740 5738 5737 5733 5727 5730 5734 5736 5733 5719 5712 5721 5725 5726 5731 5733 5735 5738 5744 5747 5746 5747 5746 5743 5741
5747 5748 5749 5750 5751 5751 5751 5751 5751 5751 5750 5750 5750 5750 5750 5751 5749 5743 5740 5743 5743 5741 5746 5749 5747 5749 5750 5749 5750 5750 5749 5749 5750 5752 5753 5753 5753 5754 5753 5751 5750 5749 5747 5748 5748 5748 5747 5747 5748 5747 5747 5748 5747 5747 5745 5745 5745 5745 5744 5743 5740 5738 5735 5731 5729 5729 5727 5726 5729 5730 5728 5722 5710 5710 5719 5721 5721 5723 5725 5722 5722 5732 5739 5738 5739 5739 5737 5735
5741 5741 5742 5743 5744 5744 5744 5744 5744 5744 5743 5744 5743 5743 5745 5742 5739 5740 5741 5741 5738 5736 5740 5742 5740 5741 5742 5742 5743 5742 5742 5742 5743 5744 5743 5743 5744 5745 5746 5746 5745 5744 5742 5742 5741 5739 5738 5739 5741 5739 5741 5744 5742 5739 5739 5739 5739 5738 5736 5736 5734 5731 5726 5722 5724 5724 5721 5723 5726 5725 5719 5709 5703 5707 5713 5717 5720 5719 5717 5715 5713 5720 5728 5730 5731 5731 5729 5728
5735 5735 5735 5736 5737 5737 5738 5738 5737 5737 5736 5736 5735 5735 5736 5733 5734 5739 5737 5734 5735 5733 5733 5734 5734 5734 5734 5735 5734 5733 5734 5734 5735 5736 5735 5735 5735 5735 5737 5738 5739 5739 5738 5736 5734 5732 5730 5731 5734 5733 5734 5736 5734 5733 5733 5731 5731 5729 5729 5728 5725 5724 5720 5718 5721 5720 5715 5716 5718 5713 5706 5701 5702 5705 5706 5709 5712 5710 5710 5711 5711 5713 5719 5722 5723 5723 5721 5719
5728 5728 5727 5728 5729 5731 5731 5732 5732 5730 5729 5728 5725 5723 5725 5727 5731 5734 5730 5729 5729 5727 5726 5727 5728 5727 5726 5727 5726 5726 5727 5726 5726 5727 5725 5726 5727 5728 5729 5728 5730 5731 5730 5729 5728 5728 5724 5724 5728 5725 5724 5727 5726 5727 5727 5723 5722 5722 5721 5718 5716 5719 5719 5715 5714 5714 5711 5708 5706 5702 5697 5697 5701 5701 5702 5703 5701 5700 5700 5702 5706 5709 5713 5716 5716 5716 5713 5710
5720 5720 5720 5720 5723 5725 5724 5724 5726 5722 5720 5720 5713 5710 5718 5725 5727 5725 5723 5724 5722 5719 5718 5718 5720 5720 5718 5719 5719 5720 5720 5718 5718 5717 5716 5717 5718 5721 5722 5721 5723 5722 5720 5720 5720 5721 5717 5717 5722 5718 5715 5719 5718 5719 5720 5716 5715 5715 5712 5710 5712 5715 5713 5707 5704 5707 5706 5698 5697 5697 5692 5694 5699 5696 5697 5699 5696 5696 5695 5694 5698 5703 5706 5710 5710 5708 5706 5703
5710 5711 5712 5715 5717 5718 5715 5716 5717 5713 5711 5708 5700 5703 5713 5719 5721 5717 5715 5717 5715 5712 5709 5709 5713 5713 5711 5711 5712 5713 5712 5710 5710 5708 5708 5709 5708 5712 5714 5712 5714 5715 5715 5713 5710 5711 5709 5707 5713 5713 5708 5710 5710 5709 5711 5709 5706 5705 5706 5708 5709 5706 5703 5699 5695 5697 5698 5690 5689 5694 5690 5690 5694 5689 5688 5692 5691 5691 5690 5687 5691 5698 5700 5702 5703 5700 5699 5697
5701 5700 5703 5710 5712 5709 5707 5707 5705 5703 5700 5693 5689 5698 5707 5711 5715 5712 5708 5709 5708 5705 5703 5701 5704 5704 5703 5704 5705 5705 5702 5700 5702 5701 5700 5701 5700 5704 5707 5704 5704 5705 5708 5708 5702 5702 5702 5696 5700 5706 5702 5702 5703 5702 5700 5699 5698 5699 5703 5705 5702 5697 5694 5692 5688 5687 5690 5684 5681 5687 5688 5686 5686 5685 5685 5686 5684 5683 5681 5679 5684 5691 5694 5695 5695 5693 5691 5690
5691 5688 5693 5704 5704 5698 5698 5698 5694 5690 5687 5681 5681 5690 5699 5703 5707 5704 5701 5702 5700 5698 5696 5694 5696 5695 5695 5698 5698 5696 5693 5691 5693 5692 5692 5694 5693 5696 5699 5697 5695 5696 5699 5699 5694 5694 5694 5686 5686 5694 5696 5694 5696 5696 5693 5694 5695 5694 5695 5695 5693 5690 5686 5683 5681 5681 5681 5677 5674 5679 5683 5679 5679 5682 5683 5682 5680 5677 5673 5672 5677 5682 5686 5688 5689 5686 5684 5683
5680 5677 5683 5695 5693 5686 5688 5686 5680 5677 5674 5673 5675 5681 5688 5693 5695 5695 5694 5693 5691 5691 5689 5688 5688 5686 5686 5689 5690 5689 5686 5683 5683 5682 5682 5686 5687 5688 5689 5688 5687 5688 5688 5688 5685 5686 5685 5677 5675 5681 5685 5686 5689 5690 5690 5691 5690 5685 5684 5685 5684 5684 5680 5675 5673 5675 5675 5669 5667 5669 5670 5673 5676 5676 5676 5676 5675 5672 5669 5669 5673 5674 5676 5679 5681 5680 5677 5676
5669 5666 5673 5685 5681 5676 5677 5670 5666 5668 5665 5665 5670 5674 5677 5679 5683 5687 5686 5683 5682 5682 5681 5679 5680 5679 5679 5680 5682 5683 5680 5675 5675 5674 5673 5676 5679 5679 5679 5678 5678 5678 5677 5676 5676 5677 5675 5669 5666 5667 5671 5676 5682 5685 5683 5682 5680 5676 5673 5675 5677 5676 5674 5667 5663 5668 5669 5661 5658 5659 5655 5661 5670 5668 5668 5671 5669 5667 5666 5668 5670 5670 5669 5670 5671 5670 5668 5667
5658 5655 5663 5674 5669 5665 5665 5656 5654 5658 5655 5657 5665 5666 5665 5668 5672 5677 5677 5675 5672 5671 5671 5671 5673 5673 5672 5672 5673 5674 5673 5668 5667 5668 5667 5669 5671 5670 5670 5670 5668 5667 5667 5666 5666 5669 5666 5658 5654 5655 5659 5666 5673 5677 5675 5672 5672 5668 5663 5667 5671 5668 5667 5661 5654 5659 5661 5650 5650 5651 5640 5645 5662 5665 5664 5664 5660 5659 5661 5663 5666 5666 5665 5664 5661 5660 5659 5658
5647 5646 5652 5659 5657 5654 5651 5643 5644 5646 5644 5651 5657 5655 5654 5657 5662 5667 5670 5668 5664 5662 5662 5662 5665 5665 5664 5665 5664 5663 5663 5660 5658 5662 5661 5661 5663 5664 5664 5663 5661 5660 5658 5655 5655 5657 5655 5648 5644 5646 5648 5652 5659 5665 5667 5666 5663 5657 5656 5662 5664 5659 5658 5655 5647 5650 5648 5638 5643 5641 5623 5631 5657 5663 5660 5658 5653 5652 5655 5656 5659 5659 5658 5657 5653 5651 5651 5650
5637 5638 5639 5644 5646 5643 5637 5633 5636 5636 5636 5642 5644 5643 5646 5646 5648 5656 5661 5660 5656 5654 5653 5652 5655 5655 5654 5656 5653 5652 5654 5650 5648 5653 5654 5651 5654 5658 5658 5657 5656 5654 5649 5646 5645 5643 5642 5640 5637 5636 5635 5637 5644 5652 5657 5658 5653 5647 5648 5653 5653 5650 5648 5643 5640 5639 5631 5627 5636 5628 5609 5623 5651 5656 5653 5653 5648 5648 5651 5651 5651 5650 5649 5646 5644 5644 5644 5642
5627 5626 5627 5631 5632 5628 5625 5627 5629 5626 5626 5630 5630 5632 5636 5633 5635 5646 5651 5650 5647 5645 5643 5643 5645 5643 5642 5644 5642 5643 5646 5641 5637 5641 5643 5643 5646 5650 5652 5650 5649 5647 5643 5639 5636 5632 5630 5629 5628 5626 5624 5625 5631 5639 5646 5647 5640 5635 5638 5642 5642 5642 5638 5633 5631 5625 5616 5619 5625 5614 5603 5618 5640 5646 5645 5646 5645 5644 5646 5645 5643 5642 5639 5636 5635 5635 5635 5634
5615 5613 5616 5620 5618 5614 5614 5619 5620 5615 5616 5619 5616 5618 5624 5622 5626 5636 5638 5635 5636 5638 5634 5631 5632 5630 5630 5633 5633 5633 5636 5634 5627 5626 5630 5635 5638 5641 5643 5641 5640 5640 5637 5632 5629 5624 5618 5616 5618 5618 5616 5616 5619 5626 5633 5633 5626 5623 5628 5631 5631 5630 5628 5626 5620 5612 5610 5613 5609 5605 5608 5611 5621 5635 5640 5641 5641 5639 5638 5638 5637 5634 5630 5627 5626 5625 5626 5627
5602 5601 5606 5609 5605 5601 5602 5607 5610 5607 5607 5609 5603 5603 5611 5614 5616 5621 5623 5623 5626 5629 5622 5616 5617 5619 5620 5625 5624 5620 5623 5624 5618 5614 5618 5625 5630 5632 5633 5631 5630 5629 5628 5624 5622 5618 5608 5604 5608 5608 5605 5607 5609 5611 5618 5618 5614 5614 5617 5619 5620 5620 5618 5616 5608 5605 5610 5603 5591 5599 5610 5602 5606 5625 5631 5632 5635 5632 5630 5631 5629 5626 5623 5619 5617 5617 5618 5618
5592 5591 5595 5596 5590 5589 5591 5595 5599 5597 5596 5595 5591 5592 5599 5601 5602 5606 5611 5614 5614 5614 5608 5602 5604 5609 5612 5617 5615 5608 5610 5612 5607 5606 5609 5613 5619 5621 5619 5619 5619 5618 5617 5613 5611 5610 5599 5592 5599 5600 5595 5598 5602 5601 5605 5607 5604 5606 5606 5606 5610 5611 5607 5603 5599 5602 5606 5592 5582 5594 5602 5595 5600 5613 5617 5620 5624 5622 5618 5618 5616 5616 5614 5612 5610 5609 5610 5608
5583 5580 5582 5583 5578 5577 5581 5584 5586 5585 5584 5583 5581 5582 5586 5589 5591 5596 5602 5603 5599 5598 5597 5592 5594 5600 5604 5607 5603 5596 5597 5599 5596 5597 5602 5602 5604 5605 5602 5603 5607 5609 5605 5599 5599 5599 5588 5582 5592 5595 5586 5587 5592 5594 5596 5597 5594 5595 5596 5596 5599 5599 5597 5595 5593 5597 5596 5584 5580 5588 5587 5585 5594 5603 5606 5610 5610 5606 5604 5604 5606 5607 5606 5606 5604 5600 5601 5598
5572 5569 5568 5569 5567 5568 5571 5574 5575 5573 5573 5573 5570 5570 5574 5578 5581 5585 5589 5589 5584 5586 5587 5583 5585 5591 5592 5592 5588 5582 5586 5590 5587 5590 5596 5592 5587 5587 5586 5586 5592 5596 5592 5588 5588 5586 5579 5575 5582 5586 5575 5572 5583 5587 5586 5585 5582 5581 5584 5587 5589 5589 5588 5589 5589 5590 5587 5578 5578 5581 5574 5574 5588 5598 5597 5597 5595 5593 5594 5596 5599 5600 5598 5598 5596 5592 5591 5588
5559 5558 5556 5554 5554 5559 5562 5563 5564 5561 5560 5562 5561 5562 5564 5566 5570 5573 5573 5574 5575 5575 5576 5575 5577 5580 5577 5575 5573 5573 5579 5582 5578 5580 5586 5581 5573 5573 5572 5571 5577 5581 5579 5579 5578 5575 5571 5566 5569 5573 5561 5557 5574 5579 5573 5574 5569 5562 5567 5578 5583 5583 5581 5581 5582 5582 5579 5574 5572 5571 5565 5567 5582 5590 5585 5583 5585 5585 5586 5589 5590 5589 5588 5588 5586 5582 5580 5579
5546 5545 5545 5540 5539 5547 5553 5553 5553 5550 5548 5552 5555 5554 5553 5554 5558 5560 5557 5558 5565 5567 5567 5566 5566 5565 5563 5562 5564 5567 5570 5568 5564 5565 5569 5567 5564 5563 5561 5560 5563 5565 5566 5568 5567 5564 5561 5556 5557 5560 5547 5543 5561 5566 5562 5561 5549 5539 5555 5575 5579 5576 5571 5569 5571 5573 5574 5572 5565 5560 5561 5566 5574 5577 5574 5575 5578 5577 5578 5581 5579 5576 5578 5578 5575 5573 5571 5571